Regional Weather Roundup
Issued by NWS

Home | Current Version | Previous Version | Graphics & Text | Print | Product List | Glossary On
Versions: 1 2 3 4 5 6 7 8 9 10 11 12 13 14 15 16 17 18 19 20 21 22 23 24 25 26 27 28 29 30 31 32 33 34 35 36 37 38 39 40 41 42 43 44 45 46 47 48 49 50
000
ASUS44 KMEG 232210
RWRTN
TENNESSEE HOURLY STATE WEATHER ROUNDUP
NATIONAL WEATHER SERVICE MEMPHIS TN
500 PM CDT WED APR 23 2014

TNZ002-004-019-021-049-052-054-088>092-232300-
WEST TENNESSEE

CITY           SKY/WX    TMP DP  RH WIND       PRES   REMARKS
MEMPHIS INTL   MOSUNNY   77  34  21 E5        29.93F
NWS MEMPHIS      N/A     76 N/A N/A MISG        N/A
JACKSON        SUNNY     75  36  24 CALM      29.95F
DYERSBURG      SUNNY     72  37  28 NE9       29.98F
UNION CITY     SUNNY     68  37  32 N9        29.97F
PARIS          SUNNY     67  34  29 CALM      29.99F
LEXINGTON      SUNNY     72  34  25 VRB5      29.96S
SAVANNAH       SUNNY     75  37  25 N9        29.95F
$$

TNZ008-025-027-028-033-062-065-066-232300-
NORTH MIDDLE TENNESSEE

CITY           SKY/WX    TMP DP  RH WIND       PRES   REMARKS
NASHVILLE      MOSUNNY   70  34  26 N13       29.99F
DICKSON        SUNNY     66  34  30 NE10      29.99F
PORTLAND       SUNNY     64  30  27 NE3       30.00F
CLARKSVILLE    SUNNY     69  37  30 NE6       29.99F
SMYRNA         SUNNY     71  33  24 N8        29.99F
MURFREESBORO   SUNNY     69  31  24 NE9       29.98F
COOKEVILLE     SUNNY     70  34  26 N3        29.98F
LIVINGSTON     SUNNY     63  26  24 NE8       30.01S
GALLATIN       SUNNY     68  34  28 VRB5      30.01S
CROSSVILLE     SUNNY     67  26  21 NE9       29.99S
$$

TNZ061-075-076-078-094-096-097-232300-
SOUTH MIDDLE TENNESSEE

CITY           SKY/WX    TMP DP  RH WIND       PRES   REMARKS
LEWISBURG      SUNNY     69  39  33 N7        29.97F
FAYETTEVILLE   SUNNY     69  36  29 N9        29.97S
TULLAHOMA      SUNNY     70  30  23 NE8       29.98S
WINCHESTER     SUNNY     70  37  30 N9        29.97F
MCMINNVILLE    SUNNY     68  34  28 NE8       29.98F
COLUMBIA       SUNNY     70  48  46 E6        29.96F
SHELBYVILLE    SUNNY     70  37  30 N8        29.99F
$$

TNZ017-018-042-046-047-232300-
NORTHEAST TENNESSEE

CITY           SKY/WX    TMP DP  RH WIND       PRES   REMARKS
TRI CITIES     SUNNY     68  18  14 NW6       29.94S
ELIZABETHTON   CLEAR     64  27  24 CALM      29.94S
$$

TNZ012-013-036-069-073-074-232300-
CENTRAL EAST TENNESSEE

CITY           SKY/WX    TMP DP  RH WIND       PRES   REMARKS
KNOXVILLE      SUNNY     69  28  21 N6        29.95F
OAK RIDGE      SUNNY     72  27  18 CALM      29.96S
$$

TNZ083-085-099-232300-
SOUTHEAST TENNESSEE

CITY           SKY/WX    TMP DP  RH WIND       PRES   REMARKS
CHATTANOOGA    SUNNY     74  33  22 N10       29.93F
$$

SKY/WX REPORTED AS FAIR MEANS FEW OR NO CLOUDS BELOW
12 THOUSAND FEET.




USA.gov is the U.S. government's official web portal to all federal, state and local government web resources and services.